COSMOS 1275 DEB

Satellite information

Favourite Embed

Satellite Type and Status

DEBRISIN ORBIT

Key statistics

Satellite COSMOS 1275 DEB at a glance.

Uptime

16042

Days in orbit

Revolutions

≈ 14.4

Per day

Orbit

LEO

Low Earth Orbit

Inclination

82.9

Latest

Satellite identification and parameters

Extended collection of information and parameters for COSMOS 1275 DEB.

Object identification

Identified? True

Debris? True

Object name: COSMOS 1275 DEB

International designator: 1981-053NQ

Object number (NORAD): 39954

Object ID (CCSDS): 39954

Country: COMMONWEALTH OF INDEPENDENT STATES (CIS)

Current information (Y/N): Y

RCS size: SMALL

Orbital parameters

Period: 100.243 minutes

Inclination: 82.8901 deg

SMA: 7148.18 km

Apoapsis: 803.147 km

Periapsis: 736.942 km

RAAN: 68.4453 deg

Eccentricy: 0.0046309

Argument of periapsis: 79.828 deg

Mean anomaly: 280.8128 deg

Mean motion: 14.36512967 rev/day

Mean motion (dot): 0.00010053 rev/day2

B* drag term: 0.0033755 1/REarth

Two-line elements (TLE)

Creation date: May 6, 2025, 3:54 a.m.

Reference frame: TEME

Reference center: EARTH

Epoch: May 5, 2025, 7:55 p.m. UTC

TLE line 0: 0 COSMOS 1275 DEB

TLE line 1: 1 39954U 81053NQ 25125.83008797 .00010053 00000-0 33755-2 0 9998

TLE line 2: 2 39954 82.8901 68.4453 0046309 79.8280 280.8128 14.36512967564565

Live tracking on map

Real-time ground track for satellite COSMOS 1275 DEB.

In-orbit conjunctions

A list of the most updated potential collisions computed for object COSMOS 1275 DEB.

Target Orbit TCA Probability of collision Miss distance Type
COSMOS 1275 DEB LEO 2025-04-08 17:22:47 0.0001895443 174.0 (m) DEBRIS
PICOSAT 9 LEO 2025-03-02 20:35:18 0.0001300386 148.0 (m) PAYLOAD
COSMOS 1110 LEO 2025-02-15 14:11:08 0.0001704883 394.0 (m) PAYLOAD

Associated space launch

Navigation satellite providing location information for the Tsiklon-B navigation system

COSMOS 1275 DEB was lifted into orbit during the mission ‘Kosmos-3M | Parus 27’, on board a Kosmos-3M space rocket.

The launch took place on June 4, 1981, 3:41 p.m. from 132/2.

For more information about the launch, click the button.

Launch to space Kosmos-3M | Parus 27
Kosmos-3M | Parus 27

Agency: N/A

Status: Launch Successful

Launch date: June 4, 1981, 3:41 p.m. UTC

Rocket: Kosmos-3M

Launch pad: 132/2

Location: Plesetsk Cosmodrome, Russian Federation

...

Latest news about this satellite

There are no fresh news available about this satellite. Check back as we update our databases every day.


Newsletter sign-up

Weekly statistics, charts and insights to help you stay on top of the space industry.